This is the latest recevied weather packets stored in our database for station/object OK1ALX-6. If no packets are shown the sender has not sent any weather packets the latest 10 day(s).
| Time | Temp. | Humidity | Pressure | Rain* | Wind** | Luminosity | Snow |
|---|---|---|---|---|---|---|---|
| 1776944403 | 15.56° C | 28% | 1025.4 hPa | 0 mm | - | 522 W/m² | - |
| 1776943803 | 15° C | 30% | 1025.6 hPa | 0 mm | - | 362 W/m² | - |
| 1776943203 | 15° C | 30% | 1025.5 hPa | 0 mm | - | 541 W/m² | - |
| 1776942603 | 15° C | 31% | 1025.5 hPa | 0 mm | - | 570 W/m² | - |
| 1776942003 | 15° C | 32% | 1025.5 hPa | 0 mm | - | 680 W/m² | - |
| 1776941403 | 15.56° C | 32% | 1025.6 hPa | 0 mm | - | 404 W/m² | - |
| 1776940803 | 14.44° C | 33% | 1025.8 hPa | 0 mm | - | 681 W/m² | - |
| 1776940203 | 14.44° C | 33% | 1026 hPa | 0 mm | - | 686 W/m² | - |
| 1776939603 | 14.44° C | 34% | 1026.2 hPa | 0 mm | - | 659 W/m² | - |
| 1776939003 | 13.89° C | 33% | 1026.5 hPa | 0 mm | - | 509 W/m² | - |
| 1776938403 | 13.89° C | 35% | 1026.8 hPa | 0 mm | - | 711 W/m² | - |
| 1776937803 | 13.33° C | 36% | 1027.1 hPa | 0 mm | - | 603 W/m² | - |
| 1776937203 | 13.33° C | 39% | 1027.2 hPa | 0 mm | - | 671 W/m² | - |
| 1776936603 | 13.33° C | 35% | 1027.3 hPa | 0 mm | - | 686 W/m² | - |
| 1776936003 | 13.33° C | 38% | 1027.2 hPa | 0 mm | - | 682 W/m² | - |
| 1776935403 | 13.33° C | 39% | 1027.4 hPa | 0 mm | - | 625 W/m² | - |
| 1776934803 | 12.78° C | 41% | 1027.7 hPa | 0 mm | - | 605 W/m² | - |
| 1776934203 | 12.78° C | 42% | 1027.8 hPa | 0 mm | - | 610 W/m² | - |
| 1776933603 | 12.22° C | 44% | 1027.6 hPa | 0 mm | - | 587 W/m² | - |
| 1776933003 | 12.22° C | 47% | 1028.1 hPa | 0 mm | - | 561 W/m² | - |
| 1776932403 | 11.67° C | 48% | 1027.9 hPa | 0 mm | - | 507 W/m² | - |
| 1776931803 | 11.67° C | 49% | 1028 hPa | 0 mm | - | 547 W/m² | - |
| 1776931203 | 11.67° C | 50% | 1027.8 hPa | 0 mm | - | 560 W/m² | - |
| 1776930603 | 12.22° C | 50% | 1027.9 hPa | 0 mm | - | 526 W/m² | - |
| 1776930003 | 11.67° C | 53% | 1027.9 hPa | 0 mm | - | 460 W/m² | - |
* Rain latest hour (hover to see other rain measurements)
** Current wind speed in m/s (hover to see current wind gust speed)